Home > Weather > Cairo > Past weeks

Flag for Egypt Past Weather in Cairo, Egypt — Yesterday and Last 2 Weeks

Now
91 °F

Clear.


Feels Like: 100 °F
Forecast: 76 / 103 °F
Wind: 14 mph from North

Location: Cairo Airport

Current Time: Jul 25, 2016 at 8:00:27 PM

Latest Report: Jul 25, 2016 at 7:30 PM


Visibility: 10 mi

Pressure: 29.71 "Hg

Humidity: 56%

Dew Point: 73 °F

Location of CairoLocation

Past Weather in Cairo — Graph

°F

Cairo Temperature Yesterday

Maximum temperature yesterday: 95 °F (at 4:00 PM)
Minimum temperature yesterday: 75 °F (at 6:00 AM)
Average temperature yesterday: 84 °F

High & Low Weather Summary for the Past Weeks

 TemperatureHumidityPressure
High99 °F (Jul 13, 2:00 PM)100% (Jul 19, 10:00 PM)29.92 "Hg (Jul 19, 10:00 PM)
Low75 °F (Jul 19, 4:00 AM)18% (Jul 15, 1:00 PM)29.65 "Hg (Jul 19, 3:00 PM)
Average86 °F54%29.78 "Hg
* Reported Jul 10 6:00 PM — Jul 25 6:30 PM, Cairo, Weather by CustomWeather, © 2016

Note: Actual official high and low records may vary slightly from our data, if they occured in-between our weather recording intervals... More about our weather records

Advertising

Cairo Weather History for the Previous 24 Hours

Scroll right to see more
 ConditionsComfort  
Time TempWeatherWind HumidityBarometerVisibility
6:30 PM
Mon, Jul 25
95 °FSunny.14 mph44%29.71 "Hg10 mi
6:00 PM97 °FSunny.14 mph37%29.68 "Hg10 mi
5:30 PM97 °FSunny.13 mph34%29.68 "Hg10 mi
5:00 PM99 °FSunny.15 mph33%29.68 "Hg10 mi
4:30 PM99 °FSunny.12 mph33%29.68 "Hg10 mi
4:00 PM99 °FSunny.12 mph31%29.68 "Hg10 mi
3:30 PM99 °FSunny.10 mph29%29.68 "Hg10 mi
3:00 PM99 °FSunny.8 mph33%29.68 "Hg10 mi
2:30 PM99 °FSunny.10 mph31%29.68 "Hg10 mi
2:00 PM97 °FSunny.9 mph30%29.68 "Hg10 mi
1:30 PM97 °FSunny.6 mph32%29.68 "Hg10 mi
1:00 PM95 °FSunny.7 mph34%29.68 "Hg10 mi
12:30 PM95 °FSunny.5 mph32%29.71 "Hg10 mi
12:00 PM93 °FSunny.7 mph39%29.71 "Hg10 mi
11:30 AM93 °FSunny.5 mph39%29.71 "Hg10 mi
11:00 AM90 °FSunny.5 mph49%29.71 "Hg10 mi
10:30 AM90 °FSunny.No wind46%29.71 "Hg10 mi
10:00 AM88 °FSunny.6 mph49%29.71 "Hg10 mi
9:00 AM84 °FSunny.9 mph66%29.71 "Hg10 mi
8:30 AM82 °FSunny.9 mph70%29.71 "Hg10 mi
8:00 AM81 °FSunny.9 mph74%29.71 "Hg10 mi
7:30 AM81 °FClear.9 mph74%29.71 "Hg4 mi
7:00 AM81 °FClear.9 mph74%29.71 "Hg4 mi
6:30 AM79 °FClear.9 mph79%29.71 "Hg4 mi
5:30 AM79 °FClear.7 mph79%29.71 "Hg4 mi
5:00 AM79 °FClear.7 mph79%29.71 "Hg10 mi
4:30 AM79 °FClear.7 mph74%29.71 "Hg10 mi
4:00 AM79 °FClear.7 mph74%29.71 "Hg10 mi
3:30 AM79 °FClear.7 mph74%29.71 "Hg10 mi
3:00 AM79 °FClear.7 mph74%29.71 "Hg10 mi
2:30 AM81 °FClear.7 mph70%29.71 "Hg10 mi
2:00 AM81 °FClear.7 mph70%29.71 "Hg10 mi
1:30 AM81 °FClear.7 mph70%29.71 "Hg10 mi
1:00 AM81 °FClear.6 mph70%29.71 "Hg10 mi
12:30 AM81 °FClear.5 mph70%29.74 "Hg10 mi
12:00 AM81 °FClear.6 mph66%29.74 "Hg10 mi
11:00 PM
Sun, Jul 24
82 °FClear.5 mph62%29.74 "Hg10 mi
10:30 PM82 °FClear.6 mph62%29.74 "Hg10 mi
10:00 PM82 °FClear.6 mph62%29.74 "Hg10 mi
9:30 PM84 °FClear.6 mph58%29.74 "Hg10 mi
9:00 PM84 °FClear.9 mph58%29.74 "Hg10 mi
8:30 PM86 °FClear.12 mph52%29.74 "Hg10 mi
8:00 PM86 °FClear.13 mph52%29.71 "Hg10 mi
Weather by CustomWeather, © 2016

See weather overviewHow to use our weather pages